{"data":{"norad_id":61688,"epoch":"2026-05-24T23:47:23.498016Z","epoch_age_seconds":86088,"freshness":"FRESH","line1":"1 61688U 24195B   26144.99124419  .00000973  00000+0  12889-4 0  9996","line2":"2 61688  53.1609  10.4187 0000982  84.6046 275.5084 15.69708363 91013","mean_motion":15.69708363,"eccentricity":9.82e-5,"inclination_deg":53.1609,"raan_deg":10.4187,"arg_perigee_deg":84.6046,"mean_anomaly_deg":275.5084,"bstar":1.2889e-5,"rev_number":9101,"period_min":91.736785886003,"perigee_km":359.06977621093,"apogee_km":360.39309357155,"semimajor_km":6737.8684348912,"source":"CELESTRAK","updated_at":"2026-05-25T13:38:19.439306Z"}}